Lewistown, MT

12:21 PM MDT on May 25, 2017 (GMT -0600)
Lewistown Municipal

Weather History for KLWT - July, 2012

Change the Weather History Date:

Sunday, July 15, 2012

  Actual Average Record
Temperature  
Mean Temperature 71 °F 66 °F  
Max Temperature 85 °F 81 °F 98 °F (1930)
Min Temperature 56 °F 51 °F 36 °F (1913)
Degree Days  
Heating Degree Days 0 2  
Month to date heating degree days 9 47  
Since 1 June heating degree days 209 274  
Since 1 July heating degree days 9 47  
Cooling Degree Days 6 3  
Month to date cooling degree days 80 35  
Year to date cooling degree days 103 57  
Since 1 June cooling degree days 103 55  
Growing Degree Days 22 (Base 50)    
Moisture  
Dew Point 54 °F    
Average Humidity 61    
Maximum Humidity 90    
Minimum Humidity 31    
Precipitation  
Precipitation T in 0.06 in 0.80 in (1907)
Month to date precipitation 0.58 1.04  
Year to date precipitation 11.27 10.38  
Snow  
Snow 0.00 in - - ()
Snow Depth 0.00 in    
Sea Level Pressure  
Sea Level Pressure 29.76 in    
Wind  
Wind Speed 7 mph (West)    
Max Wind Speed 28 mph    
Max Gust Speed 39 mph    
Visibility 10 miles    
Events      
T = Trace of Precipitation, MM = Missing Value Source: NWS Daily Summary

Daily Weather History Graph

Daily Weather History Graph

Search for Another Location

Airport or City:

Trip Planner

Search our weather history database for the weather conditions in past years. The results will help you decide how hot, cold, wet, or windy it might be!

Date:

Astronomy

Jul. 15, 2012 Rise Set
Actual Time 5:38 AM MDT 9:08 PM MDT
Civil Twilight 5:00 AM MDT 9:46 PM MDT
Nautical Twilight 4:09 AM MDT 10:37 PM MDT
Astronomical Twilight 3:02 AM MDT 11:43 PM MDT
Moon 2:37 AM MDT (7/15) 6:28 PM MDT (7/15)
Length of Visible Light 16h 46m
Length of Day
15h 30m
Waning Crescent, 11% of the Moon is Illuminated
Jul 15
Waning Crescent
Jul 18
New
Jul 26
First Quarter
Aug 1
Full
Aug 9
Last Quarter

Hourly Weather History & Observations

Time (MDT) Temp. Dew Point Humidity Pressure Visibility Wind Dir Wind Speed Gust Speed Precip Events Conditions
12:54 AM 66.0 °F 57.0 °F 73% 29.75 in 10.0 mi SSW 4.6 mph - N/A   Clear
1:54 AM 66.9 °F 57.0 °F 70% 29.75 in 10.0 mi SW 11.5 mph - N/A   Mostly Cloudy
2:54 AM 66.9 °F 57.0 °F 70% 29.74 in 10.0 mi Calm Calm - N/A   Overcast
3:54 AM 64.9 °F 57.9 °F 78% 29.74 in 10.0 mi WNW 13.8 mph 19.6 mph 0.00 in   Overcast
4:54 AM 63.0 °F 57.9 °F 84% 29.75 in 10.0 mi WNW 6.9 mph - N/A   Overcast
5:54 AM 61.0 °F 57.9 °F 90% 29.75 in 10.0 mi SW 6.9 mph - 0.00 in   Mostly Cloudy
6:54 AM 61.0 °F 57.0 °F 87% 29.77 in 10.0 mi SW 6.9 mph - N/A   Clear
7:54 AM 66.0 °F 57.0 °F 73% 29.76 in 10.0 mi West 5.8 mph - N/A   Clear
8:54 AM 68.0 °F 57.0 °F 68% 29.78 in 10.0 mi WSW 4.6 mph - N/A   Partly Cloudy
9:54 AM 70.0 °F 55.9 °F 61% 29.78 in 10.0 mi West 9.2 mph - 0.00 in   Partly Cloudy
10:54 AM 73.9 °F 54.0 °F 50% 29.76 in 10.0 mi WSW 6.9 mph - N/A   Mostly Cloudy
11:54 AM 77.0 °F 53.1 °F 43% 29.75 in 10.0 mi NW 10.4 mph - N/A   Partly Cloudy
12:54 PM 78.1 °F 51.1 °F 39% 29.73 in 10.0 mi West 13.8 mph - N/A   Partly Cloudy
1:54 PM 81.0 °F 51.1 °F 35% 29.70 in 10.0 mi North 3.5 mph - N/A   Scattered Clouds
2:54 PM 82.0 °F 51.1 °F 34% 29.69 in 10.0 mi North 4.6 mph - N/A   Partly Cloudy
3:54 PM 82.0 °F 50.0 °F 33% 29.69 in 10.0 mi North 9.2 mph - N/A   Mostly Cloudy
4:54 PM 82.0 °F 48.9 °F 31% 29.71 in 10.0 mi NW 12.7 mph 19.6 mph N/A   Partly Cloudy
5:54 PM 73.0 °F 54.0 °F 51% 29.79 in 10.0 mi NW 15.0 mph - N/A   Scattered Clouds
7:54 PM 73.0 °F 53.1 °F 49% 29.78 in 10.0 mi North 4.6 mph - N/A   Partly Cloudy
8:54 PM 70.0 °F 53.1 °F 55% 29.80 in 10.0 mi Calm Calm - N/A   Clear
9:54 PM 66.0 °F 52.0 °F 60% 29.84 in 10.0 mi Calm Calm - N/A   Clear
10:54 PM 61.0 °F 52.0 °F 72% 29.85 in 10.0 mi South 8.1 mph - N/A   Clear
11:54 PM 60.1 °F 51.1 °F 72% 29.86 in 10.0 mi ESE 4.6 mph - N/A   Partly Cloudy